This demonstration page uses our WeatherBlox Daily Observations layout. Learn more.

Left ArrowRight Arrow

41.12389, -100.76542

Hourly Observations for March 1, 2021

Temp ( °F °C ) Dew Point ( °F °C ) Humidity (%) Winds ( mph kmh ) Pressure ( in mb ) Visibility ( mi km ) Precip ( " mm )
12:53 am 00:53 Clear 24 -4.4 15 -9.4 68 68 NW 5 7 30.23 1024 10 16 0.00 0.00
1:53 am 01:53 Clear 21 -6.1 14 -10 74 74 WNW 6 9 30.25 1025 10 16 0.00 0.00
2:53 am 02:53 Clear 19 -7.2 13 -10.6 77 77 NW 7 11 30.28 1025 10 16 0.00 0.00
3:53 am 03:53 Clear 20 -6.7 13 -10.6 74 74 WNW 8 13 30.29 1026 10 16 0.00 0.00
4:53 am 04:53 Clear 19 -7.2 13 -10.6 77 77 NW 8 13 30.29 1026 10 16 0.00 0.00
5:53 am 05:53 Clear 19 -7.2 13 -10.6 77 77 WNW 8 13 30.31 1027 10 16 0.00 0.00
6:53 am 06:53 Clear 18 -7.8 13 -10.6 81 81 WNW 6 9 30.34 1028 10 16 0.00 0.00
7:53 am 07:53 Sunny 23 -5 17 -8.3 78 78 W 6 9 30.38 1029 10 16 0.00 0.00
8:53 am 08:53 Sunny 32 0 20 -6.7 61 61 W 9 15 30.39 1029 10 16 0.00 0.00
9:53 am 09:53 Sunny 37 2.8 23 -5 57 57 WNW 8 13 30.38 1029 10 16 0.00 0.00
10:53 am 10:53 Sunny 45 7.2 22 -5.6 40 40 WSW 7 11 30.37 1028 10 16 0.00 0.00
11:53 am 11:53 Sunny 47 8.3 21 -6.1 36 36 S 7 11 30.37 1028 10 16 0.00 0.00
12:53 pm 12:53 Sunny 49 9.4 20 -6.7 32 32 undefined N/A 30.36 1028 10 16 0.00 0.00
1:53 pm 13:53 Sunny 51 10.6 19 -7.2 28 28 Calm 30.34 1028 10 16 0.00 0.00
2:53 pm 14:53 Sunny 52 11.1 19 -7.2 27 27 Calm 30.32 1027 10 16 0.00 0.00
3:53 pm 15:53 Sunny 54 12.2 20 -6.7 26 26 undefined N/A 30.31 1027 10 16 0.00 0.00
4:53 pm 16:53 Sunny 53 11.7 19 -7.2 26 26 W 8 13 30.30 1026 10 16 0.00 0.00
5:53 pm 17:53 Sunny 50 10 20 -6.7 30 30 SW 8 13 30.29 1026 10 16 0.00 0.00
6:53 pm 18:53 Clear 44 6.7 20 -6.7 38 38 S 6 9 30.30 1026 10 16 0.00 0.00
7:53 pm 19:53 Clear 36 2.2 20 -6.7 52 52 S 7 11 30.30 1026 10 16 0.00 0.00
8:53 pm 20:53 Clear 34 1.1 20 -6.7 56 56 S 7 11 30.27 1025 10 16 0.00 0.00
9:53 pm 21:53 Clear 34 1.1 20 -6.7 56 56 S 7 11 30.24 1024 10 16 0.00 0.00
10:53 pm 22:53 Clear 34 1.1 20 -6.7 56 56 S 8 13 30.22 1023 10 16 0.00 0.00
11:53 pm 23:53 Clear 34 1.1 20 -6.7 56 56 S 8 13 30.19 1022 10 16 0.00 0.00

Powered by AerisWeather